Details From VQPR - PARO
To VNKT - Kathmandu Tribhuvan Intl
Flight Number -
Tags generated
Created
Modified
Stats Distance 239 nm / 442 km
Max Altitude 26,300 ft / 8,016 m
Waypoints 4
Social Downloads 4
Likes 0
Share VATSIM

Download

Looking for another format? Having issues loading an existing format? Contact us
Advertisement - Login to hide

Notes

Basic altitude profile: - Ascent Rate: 2000ft/min - Ascent Speed: 230kts - Cruise Altitude: 25000ft - Cruise Speed: 370kts - Descent Rate: 1500ft/min - Descent Speed: 230kts Options: - Use NATs: yes - Use PACOTS: yes - Use low airways: yes - Use high airways: yes

Route

VQPR MECHI G348 KTM VNKT

ID Type Via Altitude Latitude Longitude Leg Dist Tot Dist Heading (true) Name
O VQPR APT - 0 ft / 0 m 27.40319˚ 89.42461˚ - 0 nm - PARO
MECHI FIX - 26,300 ft / 8,016 m 26.76814˚ 88.18200˚ 76 nm 76 nm 240° / 240° -
KTM VOR G348 (AWY-LO) 26,000 ft / 7,925 m 27.67472˚ 85.34917˚ 160 nm 237 nm 290° / 289° KATHMANDU VOR-DME
O VNKT APT - 0 ft / 0 m 27.69658˚ 85.35910˚ 1 nm 238 nm 22° / 22° Kathmandu Tribhuvan Intl

Altitude Profile

Advertisement - Login to hide

Weather


0- 5 10 15 20 25 30 35+ Temperature / ° C

Clouds and Precipitation
Forecast for 2018-05-23 12:00 UTC. Updated 39 minutes ago

Ground ~20,000 ft ~40,000 ft Winds

VQPR

Details ICAO VQPR (PBH)
Name PARO
Region Bhutan
Timezone Asia/Thimphu (UTC+6.0)
Stats Elevation 7,332 ft / 2,235 m (AMSL)
Location 27.403190° 89.424605°
Runways 1
Magnetic Variation 0.142° E

METAR

VQPR 230930Z 16013KT 9999 SCT030 BKN100 24/08 Q1016

Decode

TAF

Not found

Departure Runways

ID Width Length Bearing (true) Bearing (mag) Surface Threshold Offset Overrun Length
15 95 ft / 29 m 6,462 ft / 1,970 m 150.65° 150.51° Asphalt 0 ft / 0 m 390 ft / 119 m
33 95 ft / 29 m 6,462 ft / 1,970 m 330.65° 330.51° Asphalt 0 ft / 0 m 217 ft / 66 m

VNKT

Details ICAO VNKT (KTM)
Name Kathmandu Tribhuvan Intl
Region Nepal
Timezone Asia/Kathmandu (UTC+5.8)
Stats Elevation 4,390 ft / 1,338 m (AMSL)
Location 27.696583° 85.359100°
Runways 1
Magnetic Variation 0.514° E

METAR

VNKT 230920Z 27008KT 7000 FEW015 FEW025CB SCT030 28/21 Q1012 NOSIG CB TO E SE AND S

Decode

TAF

TAF VNKT 230500Z 2306/2406 14003KT 6000 FEW015 SCT025 BKN100 BECMG 2307/2309 25008KT 8000 FEW020 SCT025 PROB40 2308/2314 VRB12KT 4000 -TSRA FEW025CB BKN100 BECMG 2314/2315 21003KT 6000 FEW015 SCT100 BECMG 2400/2402 00000KT 4000 BR FEW010 SCT025 PROB30 2401/2403 2000 BR BECMG 2404/2405 13003KT 6000 FEW015 SCT100

Decode

Destination Runways

ID Width Length Bearing (true) Bearing (mag) Surface Threshold Offset Overrun Length
02 148 ft / 45 m 10,017 ft / 3,053 m 21.50° 20.99° Asphalt 0 ft / 0 m 0 ft / 0 m
20 148 ft / 45 m 10,017 ft / 3,053 m 201.51° 201.00° Asphalt 400 ft / 122 m 0 ft / 0 m

Popular Alternatives